• In Spain
  • List of Countries
  • For 7 days
  • Water Temperature
  • Satellite Maps
  • Weather Map
  • Weather Widgets
  • user-avatar
    Login

    Hourly Weather Sobreda

    Today, 22 July, Sunday

    Time Temperature Precipitation Wind Pressure Humidity
    00:00 +17°C° 0 mm 5 mps 755 mmHg 89%
    01:00 +17°C° 0 mm 5 mps 755 mmHg 91%
    02:00 +17°C° 0 mm 5 mps 754 mmHg 93%
    03:00 +17°C° 0 mm 5 mps 754 mmHg 93%
    04:00 +17°C° 0 mm 5 mps 754 mmHg 93%
    05:00 +17°C° 0 mm 4 mps 754 mmHg 94%
    06:00 +19°C° 0 mm 5 mps 754 mmHg 84%
    07:00 +21°C° 0 mm 5 mps 754 mmHg 73%
    08:00 +23°C° 0 mm 5 mps 754 mmHg 63%
    09:00 +26°C° 0 mm 5 mps 754 mmHg 56%
    10:00 +28°C° 0 mm 5 mps 755 mmHg 49%
    11:00 +30°C° 0 mm 5 mps 755 mmHg 42%
    12:00 +30°C° 0 mm 6 mps 754 mmHg 41%
    13:00 +32°C° 0 mm 6 mps 754 mmHg 41%
    14:00 +32°C° 0 mm 6 mps 754 mmHg 40%
    15:00 +30°C° 0 mm 7 mps 754 mmHg 44%
    16:00 +29°C° 0 mm 7 mps 754 mmHg 49%
    17:00 +27°C° 0 mm 7 mps 754 mmHg 53%
    18:00 +24°C° 0 mm 6 mps 754 mmHg 61%
    19:00 +22°C° 0 mm 6 mps 755 mmHg 70%
    20:00 +20°C° 0 mm 5 mps 755 mmHg 78%
    21:00 +19°C° 0 mm 5 mps 755 mmHg 83%
    22:00 +19°C° 0 mm 4 mps 755 mmHg 87%
    23:00 +18°C° 0 mm 4 mps 755 mmHg 92%

    Tomorrow, 23 July, Monday

    Time Temperature Precipitation Wind Pressure Humidity
    00:00 +18°C° 0 mm 4 mps 755 mmHg 93%
    01:00 +18°C° 0 mm 3 mps 755 mmHg 94%
    02:00 +17°C° 0 mm 3 mps 754 mmHg 95%
    03:00 +17°C° 0 mm 3 mps 754 mmHg 95%
    04:00 +18°C° 0 mm 3 mps 755 mmHg 94%
    05:00 +18°C° 0 mm 3 mps 755 mmHg 94%
    06:00 +19°C° 0 mm 3 mps 755 mmHg 86%
    07:00 +21°C° 0 mm 3 mps 755 mmHg 78%
    08:00 +22°C° 0 mm 3 mps 755 mmHg 70%
    09:00 +25°C° 0 mm 3 mps 755 mmHg 61%
    10:00 +27°C° 0 mm 3 mps 755 mmHg 52%
    11:00 +29°C° 0 mm 4 mps 755 mmHg 43%
    12:00 +29°C° 0 mm 4 mps 755 mmHg 43%
    13:00 +29°C° 0 mm 5 mps 755 mmHg 42%
    14:00 +29°C° 0 mm 5 mps 755 mmHg 42%
    15:00 +28°C° 0 mm 5 mps 755 mmHg 46%
    16:00 +27°C° 0 mm 5 mps 755 mmHg 50%
    17:00 +24°C° 0 mm 6 mps 755 mmHg 55%
    18:00 +23°C° 0 mm 5 mps 755 mmHg 64%
    19:00 +21°C° 0 mm 4 mps 756 mmHg 73%
    20:00 +19°C° 0 mm 4 mps 756 mmHg 82%
    21:00 +19°C° 0 mm 4 mps 756 mmHg 85%
    22:00 +18°C° 0 mm 3 mps 756 mmHg 89%
    23:00 +18°C° 0 mm 3 mps 756 mmHg 92%

    Day after tomorrow, 24 July, Tuesday

    Time Temperature Precipitation Wind Pressure Humidity
    00:00 +18°C° 0 mm 3 mps 756 mmHg 93%
    01:00 +17°C° 0 mm 3 mps 755 mmHg 93%
    02:00 +17°C° 0 mm 3 mps 755 mmHg 94%
    03:00 +17°C° 0 mm 3 mps 755 mmHg 94%
    04:00 +17°C° 0 mm 3 mps 755 mmHg 94%
    05:00 +17°C° 0 mm 3 mps 755 mmHg 93%
    06:00 +20°C° 0 mm 3 mps 755 mmHg 82%
    07:00 +22°C° 0 mm 3 mps 756 mmHg 71%
    08:00 +25°C° 0 mm 4 mps 756 mmHg 59%
    09:00 +26°C° 0 mm 4 mps 756 mmHg 56%
    10:00 +27°C° 0 mm 5 mps 756 mmHg 52%
    11:00 +28°C° 0 mm 5 mps 756 mmHg 48%
    12:00 +28°C° 0 mm 6 mps 756 mmHg 48%
    13:00 +29°C° 0 mm 6 mps 755 mmHg 47%
    14:00 +29°C° 0 mm 7 mps 755 mmHg 47%
    15:00 +28°C° 0 mm 7 mps 755 mmHg 51%
    16:00 +27°C° 0 mm 7 mps 755 mmHg 55%
    17:00 +26°C° 0 mm 7 mps 755 mmHg 60%
    18:00 +23°C° 0 mm 6 mps 755 mmHg 67%
    19:00 +21°C° 0 mm 6 mps 756 mmHg 75%
    20:00 +20°C° 0 mm 5 mps 756 mmHg 83%
    21:00 +19°C° 0 mm 5 mps 756 mmHg 86%
    22:00 +19°C° 0 mm 5 mps 756 mmHg 89%
    23:00 +17°C° 0 mm 5 mps 756 mmHg 93%

    25 July, Wednesday

    Time Temperature Precipitation Wind Pressure Humidity
    00:00 +17°C° 0 mm 5 mps 756 mmHg 92%
    01:00 +19°C° 0 mm 5 mps 755 mmHg 91%
    02:00 +19°C° 0 mm 5 mps 755 mmHg 90%
    03:00 +19°C° 0 mm 5 mps 755 mmHg 87%
    04:00 +20°C° 0 mm 5 mps 755 mmHg 84%
    05:00 +20°C° 0 mm 5 mps 755 mmHg 82%
    06:00 +21°C° 0 mm 5 mps 756 mmHg 77%
    07:00 +22°C° 0 mm 5 mps 756 mmHg 72%
    08:00 +22°C° 0 mm 5 mps 756 mmHg 68%
    09:00 +25°C° 0 mm 5 mps 756 mmHg 61%
    10:00 +27°C° 0 mm 5 mps 756 mmHg 54%
    11:00 +29°C° 0 mm 6 mps 756 mmHg 47%
    12:00 +29°C° 0 mm 6 mps 756 mmHg 45%
    13:00 +29°C° 0 mm 7 mps 756 mmHg 44%
    14:00 +30°C° 0 mm 7 mps 756 mmHg 42%
    15:00 +29°C° 0 mm 7 mps 756 mmHg 45%
    16:00 +28°C° 0 mm 7 mps 756 mmHg 47%
    17:00 +27°C° 0 mm 7 mps 756 mmHg 50%
    18:00 +24°C° 0 mm 7 mps 756 mmHg 58%
    19:00 +22°C° 0 mm 6 mps 756 mmHg 66%
    20:00 +20°C° 0 mm 6 mps 757 mmHg 75%
    21:00 +19°C° 0 mm 6 mps 757 mmHg 80%
    22:00 +19°C° 0 mm 6 mps 757 mmHg 85%
    23:00 +17°C° 0 mm 6 mps 757 mmHg 90%

    26 July, Thursday

    Time Temperature Precipitation Wind Pressure Humidity
    00:00 +17°C° 0 mm 5 mps 756 mmHg 91%
    01:00 +17°C° 0 mm 5 mps 756 mmHg 92%
    02:00 +16°C° 0 mm 5 mps 756 mmHg 93%
    03:00 +16°C° 0 mm 5 mps 756 mmHg 93%
    04:00 +16°C° 0 mm 5 mps 756 mmHg 93%
    05:00 +16°C° 0 mm 5 mps 756 mmHg 93%
    06:00 +19°C° 0 mm 5 mps 756 mmHg 82%
    07:00 +21°C° 0 mm 5 mps 756 mmHg 72%
    08:00 +25°C° 0 mm 5 mps 756 mmHg 61%
    09:00 +27°C° 0 mm 6 mps 756 mmHg 53%
    10:00 +29°C° 0 mm 6 mps 756 mmHg 46%
    11:00 +32°C° 0 mm 6 mps 755 mmHg 38%
    12:00 +33°C° 0 mm 7 mps 755 mmHg 36%
    13:00 +33°C° 0 mm 7 mps 755 mmHg 34%
    14:00 +34°C° 0 mm 8 mps 754 mmHg 31%
    15:00 +32°C° 0 mm 8 mps 754 mmHg 33%
    16:00 +31°C° 0 mm 8 mps 754 mmHg 36%
    17:00 +29°C° 0 mm 8 mps 754 mmHg 38%
    18:00 +27°C° 0 mm 8 mps 755 mmHg 45%
    19:00 +23°C° 0 mm 7 mps 755 mmHg 53%
    20:00 +21°C° 0 mm 6 mps 755 mmHg 61%
    21:00 +20°C° 0 mm 6 mps 755 mmHg 66%
    22:00 +20°C° 0 mm 6 mps 755 mmHg 72%
    23:00 +19°C° 0 mm 5 mps 755 mmHg 77%

    27 July, Friday

    Time Temperature Precipitation Wind Pressure Humidity
    00:00 +19°C° 0 mm 6 mps 755 mmHg 81%
    01:00 +19°C° 0 mm 6 mps 755 mmHg 85%
    02:00 +17°C° 0 mm 6 mps 755 mmHg 89%
    03:00 +17°C° 0 mm 6 mps 755 mmHg 90%
    04:00 +19°C° 0 mm 5 mps 755 mmHg 91%
    05:00 +19°C° 0 mm 5 mps 755 mmHg 92%
    06:00 +21°C° 0 mm 5 mps 755 mmHg 80%
    07:00 +23°C° 0 mm 5 mps 755 mmHg 68%
    08:00 +27°C° 0 mm 6 mps 755 mmHg 56%
    09:00 +28°C° 0 mm 6 mps 755 mmHg 51%
    10:00 +30°C° 0 mm 6 mps 755 mmHg 46%
    11:00 +33°C° 0 mm 7 mps 755 mmHg 41%
    12:00 +33°C° 0 mm 7 mps 755 mmHg 41%
    13:00 +33°C° 0 mm 7 mps 755 mmHg 41%
    14:00 +33°C° 0 mm 8 mps 755 mmHg 42%
    15:00 +31°C° 0 mm 8 mps 755 mmHg 46%
    16:00 +29°C° 0 mm 8 mps 755 mmHg 49%
    17:00 +28°C° 0 mm 8 mps 755 mmHg 53%
    18:00 +26°C° 0 mm 7 mps 755 mmHg 61%
    19:00 +22°C° 0 mm 7 mps 756 mmHg 69%
    20:00 +20°C° 0 mm 6 mps 756 mmHg 77%
    21:00 +20°C° 0 mm 6 mps 756 mmHg 80%
    22:00 +19°C° 0 mm 6 mps 756 mmHg 83%
    23:00 +17°C° 0 mm 6 mps 756 mmHg 86%
    Show more